Location: Ab? ar R?sh Ba?r?
(24.1861°N, 32.8847°E)
Time: 09:42:27
(UTC+00:00)

USA 267 - Pass Details

Date: 24 October 2021
Orbit: 1101 x 1107 km, 123.0° (Epoch: 27 November)

Event Time Altitude Azimuth Distance (km) Brightness Sun altitude
Exits shadow 16:06:27 14° 102° (ESE) 2,683 4.7 -12.5°
Maximum altitude 16:11:25 35° 43° (NE) 1,697 3.9 -13.6°
Drops below altitude 10° 16:17:11 10° 341° (NNW) 2,955 5.7 -14.9°
Sets 16:19:53 0° 333° (NNW) 3,914 6.4 -15.5°
